There are no active watches, warnings or advisories



For GOD so loved the world that HE gave HIS one and only SON, that whoever believes in HIM shall not perish but have eternal life.


Thunder radar more information blitzortung!


Rain radar more information rain snow radar



Select another period ( hide this area )

Units Period Custom range Directly to
Metric English Both
Daily Weekly Monthly Yearly
use both date-selectors for a custom range
previous Day
With this date

WeatherUnderground graphs for this period ( click here )


Daily Summary for Sunday Dec 16 2018
Time Temp. ( °C ) Dew pt. ( °C ) Wind ( km/h ) from Gust ( km/h ) Pressure ( hPa ) Humid.( % ) Rainrate ( cm ) Solar ( W/m2 )
High2,2 0,3 11,4 East ( 63/195 ) 14,8 1021,2 88 - 0
Average1,9 0,0 4,2 NE #21/74 7,1 1019,2 87 - 0 #0/74
Low1,5 -0,4 -   0,0 1017,8 87 -  
Daily Tabular details for Sunday Dec 16 2018
Time Temp. ( °C ) Dew pt. ( °C ) Wind ( km/h ) from Gust ( km/h ) Pressure ( hPa ) Humid.( % ) Rainrate ( cm ) Solar ( W/m2 )
00:04 2,2 0,3 8,5 ENE 11,1 1021,2 87 - -
00:09 2,2 0,3 8,4 NE 9,3 1020,9 87 - -
00:14 2,2 0,2 4,0 East 6,4 1020,9 87 - -
00:19 2,1 0,2 3,2 East 7,4 1020,9 87 - -
00:24 2,1 0,1 5,1 NE 7,4 1020,5 87 - -
00:29 2,1 0,1 6,8 East 7,4 1020,9 87 - -
00:34 2,1 0,1 6,1 East 14,8 1020,9 87 - -
00:39 2,1 0,1 3,9 ESE 9,3 1020,9 87 - -
00:44 2,0 0,1 4,8 NE 7,4 1020,5 87 - -
00:49 2,0 0,1 9,2 East 11,1 1020,5 87 - -
00:54 2,0 0,1 3,7 East 11,1 1020,2 87 - -
00:59 2,0 0,1 5,8 East 9,7 1020,2 87 - -
01:04 2,1 0,1 5,0 ENE 7,4 1019,9 87 - -
01:09 2,1 0,1 7,6 ENE 11,1 1019,9 87 - -
01:14 2,1 0,2 11,4 East 12,9 1019,9 87 - -
01:19 2,1 0,2 7,2 ENE 14,8 1019,5 87 - -
01:24 2,2 0,2 9,8 NE 13,0 1019,5 87 - -
01:29 2,2 0,2 10,8 ESE 11,3 1019,9 87 - -
01:34 2,2 0,2 3,7 NE 7,4 1019,9 87 - -
01:39 2,2 0,2 4,3 ENE 5,6 1019,9 87 - -
01:44 2,2 0,2 3,5 East 9,7 1019,5 87 - -
01:49 2,2 0,2 4,2 ENE 5,6 1019,5 87 - -
01:54 2,2 0,2 5,0 NE 8,0 1019,5 87 - -
01:59 2,2 0,2 5,1 NE 9,3 1019,5 87 - -
02:04 2,2 0,2 6,6 ENE 7,4 1019,5 87 - -
02:09 2,2 0,2 7,1 East 13,0 1019,5 87 - -
02:14 2,2 0,2 5,6 East 13,0 1019,5 87 - -
02:19 2,2 0,2 3,5 ENE 9,3 1019,5 87 - -
02:24 2,2 0,2 5,0 East 13,0 1019,5 87 - -
02:29 2,2 0,2 5,6 ENE 11,1 1019,2 87 - -
02:34 2,2 0,2 4,0 ENE 5,6 1019,5 87 - -
02:39 2,1 0,2 5,8 ENE 7,4 1019,5 87 - -
02:44 2,1 0,2 5,8 NE 8,0 1019,5 87 - -
02:49 2,1 0,2 3,7 ENE 5,6 1019,2 87 - -
02:54 2,1 0,1 3,5 East 6,4 1018,8 87 - -
02:59 2,1 0,1 5,6 ENE 7,4 1018,8 87 - -
03:04 2,1 0,1 4,2 ENE 7,4 1018,8 87 - -
03:09 2,0 0,1 1,1 East 5,6 1018,8 87 - -
03:14 1,9 0,0 1,3 East 5,6 1018,5 87 - -
03:19 1,9 0,0 2,9 NE 5,6 1018,5 87 - -
03:24 1,9 -0,1 3,1 ENE 5,6 1018,5 87 - -
03:29 1,9 -0,1 3,9 ENE 6,4 1018,5 87 - -
03:34 1,8 -0,1 4,5 NE 5,6 1018,2 87 - -
03:39 1,8 -0,2 5,8 NE 7,4 1018,2 87 - -
03:44 1,8 -0,2 6,0 ENE 8,0 1018,2 87 - -
03:49 1,8 -0,2 6,9 NE 9,3 1017,8 87 - -
03:54 1,8 -0,2 4,7 NE 9,7 1017,8 87 - -
03:59 1,7 -0,2 4,8 NNE 8,0 1017,8 87 - -
04:04 1,7 -0,1 5,1 East 11,1 1017,8 88 - -
04:09 1,7 -0,1 5,8 East 5,6 1017,8 88 - -
04:14 1,7 -0,1 4,2 East 5,6 1017,8 88 - -
04:19 1,7 -0,1 2,6 East 3,7 1017,8 88 - -
04:24 1,7 -0,1 3,7 NE 6,4 1017,8 88 - -
04:29 1,7 -0,1 2,6 ENE 5,6 1017,8 88 - -
04:34 1,7 -0,2 3,2 East 5,6 1017,8 87 - -
04:39 1,7 -0,2 3,5 East 5,6 1017,8 87 - -
04:44 1,7 -0,2   Calm 1,9 1017,8 87 - -
04:49 1,7 -0,2   Calm 3,7 1017,8 87 - -
04:54 1,7 -0,2 1,6 NE 5,6 1017,8 87 - -
04:59 1,7 -0,2 0,2 NE 3,7 1017,8 87 - -
05:04 1,7 -0,2   Calm   1018,2 87 - -
05:09 1,7 -0,2   Calm   1018,2 87 - -
05:14 1,7 -0,2 0,3 NE   1018,2 87 - -
05:19 1,7 -0,3   Calm 1,9 1018,2 87 - -
05:24 1,7 -0,3   Calm 1,6 1018,2 87 - -
05:29 1,6 -0,3   Calm 1,9 1018,2 87 - -
05:34 1,6 -0,3 2,6 NE 3,7 1018,2 87 - -
05:39 1,6 -0,3 3,9 NNE 4,8 1018,2 87 - -
05:44 1,6 -0,4 4,5 NNE 5,6 1018,2 87 - -
05:49 1,6 -0,4 4,2 NNE 5,6 1017,8 87 - -
05:54 1,5 -0,3 3,7 NE 5,6 1018,2 88 - -
05:59 1,5 -0,3 2,3 NE 4,8 1018,2 88 - -
06:04 1,5 -0,3 2,1 NE 5,6 1017,8 88 - -
06:09 1,5 -0,3   Calm 1,9 1017,8 88 - -
Daily Summary for Sunday Dec 16 2018
Time Temp. ( °C ) Dew pt. ( °C ) Wind ( km/h ) from Gust ( km/h ) Pressure ( hPa ) Humid.( % ) Rainrate ( cm ) Solar ( W/m2 )
High2,2 0,3 11,4 East ( 63/195 ) 14,8 1021,2 88 - 0
Average1,9 0,0 4,2 NE #21/74 7,1 1019,2 87 - 0 #0/74
Low1,5 -0,4 -   0,0 1017,8 87 -  
Daily Tabular details for Sunday Dec 16 2018
Time Temp. ( °C ) Dew pt. ( °C ) Wind ( km/h ) from Gust ( km/h ) Pressure ( hPa ) Humid.( % ) Rainrate ( cm ) Solar ( W/m2 )
00:04 2,2 0,3 8,5 ENE 11,1 1021,2 87 - -
00:09 2,2 0,3 8,4 NE 9,3 1020,9 87 - -
00:14 2,2 0,2 4,0 East 6,4 1020,9 87 - -
00:19 2,1 0,2 3,2 East 7,4 1020,9 87 - -
00:24 2,1 0,1 5,1 NE 7,4 1020,5 87 - -
00:29 2,1 0,1 6,8 East 7,4 1020,9 87 - -
00:34 2,1 0,1 6,1 East 14,8 1020,9 87 - -
00:39 2,1 0,1 3,9 ESE 9,3 1020,9 87 - -
00:44 2,0 0,1 4,8 NE 7,4 1020,5 87 - -
00:49 2,0 0,1 9,2 East 11,1 1020,5 87 - -
00:54 2,0 0,1 3,7 East 11,1 1020,2 87 - -
00:59 2,0 0,1 5,8 East 9,7 1020,2 87 - -
01:04 2,1 0,1 5,0 ENE 7,4 1019,9 87 - -
01:09 2,1 0,1 7,6 ENE 11,1 1019,9 87 - -
01:14 2,1 0,2 11,4 East 12,9 1019,9 87 - -
01:19 2,1 0,2 7,2 ENE 14,8 1019,5 87 - -
01:24 2,2 0,2 9,8 NE 13,0 1019,5 87 - -
01:29 2,2 0,2 10,8 ESE 11,3 1019,9 87 - -
01:34 2,2 0,2 3,7 NE 7,4 1019,9 87 - -
01:39 2,2 0,2 4,3 ENE 5,6 1019,9 87 - -
01:44 2,2 0,2 3,5 East 9,7 1019,5 87 - -
01:49 2,2 0,2 4,2 ENE 5,6 1019,5 87 - -
01:54 2,2 0,2 5,0 NE 8,0 1019,5 87 - -
01:59 2,2 0,2 5,1 NE 9,3 1019,5 87 - -
02:04 2,2 0,2 6,6 ENE 7,4 1019,5 87 - -
02:09 2,2 0,2 7,1 East 13,0 1019,5 87 - -
02:14 2,2 0,2 5,6 East 13,0 1019,5 87 - -
02:19 2,2 0,2 3,5 ENE 9,3 1019,5 87 - -
02:24 2,2 0,2 5,0 East 13,0 1019,5 87 - -
02:29 2,2 0,2 5,6 ENE 11,1 1019,2 87 - -
02:34 2,2 0,2 4,0 ENE 5,6 1019,5 87 - -
02:39 2,1 0,2 5,8 ENE 7,4 1019,5 87 - -
02:44 2,1 0,2 5,8 NE 8,0 1019,5 87 - -
02:49 2,1 0,2 3,7 ENE 5,6 1019,2 87 - -
02:54 2,1 0,1 3,5 East 6,4 1018,8 87 - -
02:59 2,1 0,1 5,6 ENE 7,4 1018,8 87 - -
03:04 2,1 0,1 4,2 ENE 7,4 1018,8 87 - -
03:09 2,0 0,1 1,1 East 5,6 1018,8 87 - -
03:14 1,9 0,0 1,3 East 5,6 1018,5 87 - -
03:19 1,9 0,0 2,9 NE 5,6 1018,5 87 - -
03:24 1,9 -0,1 3,1 ENE 5,6 1018,5 87 - -
03:29 1,9 -0,1 3,9 ENE 6,4 1018,5 87 - -
03:34 1,8 -0,1 4,5 NE 5,6 1018,2 87 - -
03:39 1,8 -0,2 5,8 NE 7,4 1018,2 87 - -
03:44 1,8 -0,2 6,0 ENE 8,0 1018,2 87 - -
03:49 1,8 -0,2 6,9 NE 9,3 1017,8 87 - -
03:54 1,8 -0,2 4,7 NE 9,7 1017,8 87 - -
03:59 1,7 -0,2 4,8 NNE 8,0 1017,8 87 - -
04:04 1,7 -0,1 5,1 East 11,1 1017,8 88 - -
04:09 1,7 -0,1 5,8 East 5,6 1017,8 88 - -
04:14 1,7 -0,1 4,2 East 5,6 1017,8 88 - -
04:19 1,7 -0,1 2,6 East 3,7 1017,8 88 - -
04:24 1,7 -0,1 3,7 NE 6,4 1017,8 88 - -
04:29 1,7 -0,1 2,6 ENE 5,6 1017,8 88 - -
04:34 1,7 -0,2 3,2 East 5,6 1017,8 87 - -
04:39 1,7 -0,2 3,5 East 5,6 1017,8 87 - -
04:44 1,7 -0,2   Calm 1,9 1017,8 87 - -
04:49 1,7 -0,2   Calm 3,7 1017,8 87 - -
04:54 1,7 -0,2 1,6 NE 5,6 1017,8 87 - -
04:59 1,7 -0,2 0,2 NE 3,7 1017,8 87 - -
05:04 1,7 -0,2   Calm   1018,2 87 - -
05:09 1,7 -0,2   Calm   1018,2 87 - -
05:14 1,7 -0,2 0,3 NE   1018,2 87 - -
05:19 1,7 -0,3   Calm 1,9 1018,2 87 - -
05:24 1,7 -0,3   Calm 1,6 1018,2 87 - -
05:29 1,6 -0,3   Calm 1,9 1018,2 87 - -
05:34 1,6 -0,3 2,6 NE 3,7 1018,2 87 - -
05:39 1,6 -0,3 3,9 NNE 4,8 1018,2 87 - -
05:44 1,6 -0,4 4,5 NNE 5,6 1018,2 87 - -
05:49 1,6 -0,4 4,2 NNE 5,6 1017,8 87 - -
05:54 1,5 -0,3 3,7 NE 5,6 1018,2 88 - -
05:59 1,5 -0,3 2,3 NE 4,8 1018,2 88 - -
06:04 1,5 -0,3 2,1 NE 5,6 1017,8 88 - -
06:09 1,5 -0,3   Calm 1,9 1017,8 88 - -

Download your copy of this data-set  here

Our weather-data as stored at Weather Underground. Script developed by Jim McMurry. Adapted for the template by Leuven-Template.eu